[Iaude] MPEC M02: 2024 LN5 [a=2.42,e=0.57,i=2.9,H=24.9]

mpec at cfa.harvard.edu mpec at cfa.harvard.edu
Sun Jun 16 07:54:04 EDT 2024


M.P.E.C. 2024-M02                                 Issued 2024 June 16, 11:52 UT

     The Minor Planet Electronic Circulars contain information on unusual
         minor planets, routine data on comets and natural satellites,
         and occasional editorial announcements.  They are published
    on behalf of Division F of the International Astronomical Union by the
          Minor Planet Center, Smithsonian Astrophysical Observatory,
                          Cambridge, MA 02138, U.S.A.
			  
             Prepared using the Tamkin Foundation Computer Network

                              MPC at CFA.HARVARD.EDU
            URL https://www.minorplanetcenter.net/    ISSN 1523-6714

                                    2024 LN5                                    


Observations:
     K24L05N* C2024 06 14.41982316 38 37.975+03 50 44.83         21.95wXEM002F51
     K24L05N  C2024 06 14.43180616 38 39.763+03 51 13.37         22.01wXEM002F51
     K24L05N  C2024 06 14.44378516 38 41.565+03 51 41.92         21.54wXEM002F51
     K24L05N  C2024 06 14.52116116 38 53.527+03 54 46.37         21.94GVEM002F51
     K24L05N  C2024 06 14.52180516 38 53.638+03 54 47.80         21.93GVEM002F51
     K24L05N KC2024 06 15.15865316 40 53.30 +04 20 16.0          22.2 GVEM002H21
     K24L05N KC2024 06 15.16154316 40 53.76 +04 20 22.8          21.8 GVEM002H21
     K24L05N KC2024 06 15.16443416 40 54.22 +04 20 29.9          21.9 GVEM002H21
     K24L05N KC2024 06 15.16761316 40 54.76 +04 20 38.2          21.7 GVEM002H21
     K24L05N 1C2024 06 15.49868216 41 53.736+04 34 38.33         22.01GVEM002T12
     K24L05N 1C2024 06 15.50118216 41 54.212+04 34 45.19         21.57GVEM002T12
     K24L05N 1C2024 06 15.50354216 41 54.552+04 34 50.10         21.57GVEM002T12
     K24L05N KC2024 06 16.39434 16 44 50.84 +05 12 21.5          21.6 RVEM002291
     K24L05N KC2024 06 16.40022 16 44 51.97 +05 12 36.0                VEM002291
     K24L05N KC2024 06 16.40612 16 44 53.07 +05 12 51.1          21.3 RVEM002291

Observer details:
291 LPL/Spacewatch II.  Observer T. H. Bressi.  1.8-m f/2.7 reflector + CCD.
F51 Pan-STARRS 1, Haleakala.  Observers J. Herman, T. Lowe, P. Minguez, A.
    Schultz, I. Smith.  Measurers K. Chambers, T. de Boer, J. Fairlamb, H.
    Gao, M. Huber, C.-C. Lin, E. Magnier, Y. Ramanjooloo, R. Wainscoat, R.
    Weryk.  1.8-m Ritchey-Chretien + CCD.
H21 Astronomical Research Observatory, Westfield.  Observer R. Holmes.
    Measurers T. Linder, R. Holmes, L. Horn.  1.3-m f/4.0 astrograph + CCD.
T12 University of Hawaii 88-inch telescope, Maunakea.  Observer Y.
    Ramanjooloo.  Measurers R. Weryk, Y. Ramanjooloo, J. Fairlamb, R.
    Wainscoat.  2.24-m f/10.1 reflector + CCD.

Orbital elements:
2024 LN5                                                 Earth MOID = 0.0531 AU
Epoch 2024 Mar. 31.0 TT = JDT 2460400.5                 Veres                   
M 331.42229              (2000.0)            P               Q                  
n   0.26146123     Peri.  128.39754     +0.48015833     +0.87713967             
a   2.4221322      Node   170.28698     -0.81985620     +0.45224395             
e   0.5661430      Incl.    2.92222     -0.31190348     +0.16155932             
P   3.77           H   24.97          G   0.15           U   8                  
Residuals in seconds of arc
240614 F51  0.1+  0.0     240615 H21  0.3+  0.3+    240615 T12 (0.8+  0.6+)
240614 F51  0.1-  0.0     240615 H21  0.1+  0.1-    240615 T12 (0.1-  0.3-)
240614 F51  0.2-  0.0     240615 H21  0.1-  0.1-    240616 291  0.3-  0.5+
240614 F51  0.1+  0.2+    240615 H21  0.1+  0.3+    240616 291  0.1+  0.1-
240614 F51  0.2+  0.1+    240615 T12  0.0   0.0     240616 291  0.0   0.1-

Ephemeris:
2024 LN5                 a,e,i = 2.42, 0.57, 3                   q = 1.0509
Date    TT    R. A. (2000) Decl.     Delta      r    Elong.  Phase     V
2024 05 17    16 02 09.2 -08 22 21   0.2904  1.2962   167.3     9.9    23.5
...
2024 06 01    16 13 42.9 -03 13 14   0.1980  1.2024   160.4    16.4    22.7
...
2024 06 09    16 25 37.3 +00 36 09   0.1574  1.1589   154.2    22.4    22.4
...
2024 06 15    16 40 22.7 +04 14 24   0.1305  1.1301   149.5    27.1    22.0
2024 06 16    16 43 33.9 +04 55 59   0.1263  1.1257   148.7    27.9    22.0
2024 06 17    16 47 00.6 +05 39 21   0.1221  1.1213   148.0    28.7    21.9
...
2024 06 23    17 14 33.7 +10 43 36   0.09929 1.0977   143.5    33.4    21.6
...
2024 07 01    18 19 58.5 +19 44 40   0.07571 1.0732   136.9    40.4    21.1
...
2024 07 16    22 09 52.4 +29 39 50   0.07069 1.0512   117.8    58.8    21.4

M. P. C. Staff               (C) Copyright 2024 MPC           M.P.E.C. 2024-M02





More information about the Iaude mailing list